{"data":{"norad_id":61892,"intl_designator":"2024-204U","name":"STARLINK-32239","alt_names":[],"object_type":"PAYLOAD","status":"ACTIVE","operator":null,"country":"US","launch_date":"2024-11-09","launch_site_code":"AFWTR","launch_vehicle":null,"mission":null,"orbit_class":"UNKNOWN","rcs_meters":null,"size_class":null,"mass_kg":null,"dimensions":null,"purposes":["comms"],"wikipedia_slug":null,"has_3d_model":false,"image_url":null,"decayed_at":null,"tle_current":{"epoch":"2026-09-21T08:22:13.569888Z","epoch_age_seconds":115180,"freshness":"FRESH","line1":"1 61892U 24204U   26264.34876817 -.00000309  00000+0  19796-5 0  9991","line2":"2 61892  53.1606 295.4455 0001376  89.6638 270.4522 15.34390945105090","mean_motion":15.34390945,"eccentricity":0.0001376,"inclination_deg":53.1606,"raan_deg":295.4455,"arg_perigee_deg":89.6638,"mean_anomaly_deg":270.4522,"bstar":1.9796e-6,"rev_number":10509,"period_min":93.848311911147,"perigee_km":461.78885038737,"apogee_km":463.67145702807,"semimajor_km":6840.8671537077,"source":"CELESTRAK","updated_at":"2026-09-22T09:00:49.448236Z"}}}